Regional Weather Roundup
Issued by NWS

Home | Current Version | Previous Version | Text Only | Print | Product List | Glossary Off
Versions: 1 2 3 4 5 6 7 8 9 10 11 12 13 14 15 16 17 18 19 20 21 22 23 24 25 26 27 28

000
ASUS45 KCYS 250710
RWRWY

WYOMING REGIONAL WEATHER ROUNDUP
NATIONAL WEATHER SERVICE CHEYENNE WY
100 AM MDT MON JUL 25 2016

NOTE:  "FAIR" INDICATES FEW OR NO CLOUDS BELOW 12,000 FEET
WITH NO SIGNIFICANT WEATHER AND/OR OBSTRUCTIONS TO VISIBILITY.

WYZ001-250800-
YELLOWSTONE NATIONAL PARK

CITY           SKY/WX    TMP DP  RH WIND       PRES   REMARKS
LK YELLOWSTONE   N/A     44  31  60 NW3       30.38S
W YELLOWSTONE  NOT AVBL

$$
WYZ002>013-054>058-071-098>099-250800-
NORTHERN WYOMING

CITY           SKY/WX    TMP DP  RH WIND       PRES   REMARKS
JACKSON        FAIR      52  36  54 N6        30.26S
CODY           FAIR      63  32  31 S6        30.14S
GREYBULL       FAIR      66  40  38 CALM      30.03R
WORLAND        FAIR      63  32  31 S3        30.05S
SHERIDAN       FAIR      62  45  53 SW3       30.06S
BUFFALO        FAIR      67  40  37 SE6       30.14F
GILLETTE       FAIR      70  51  51 S15       30.10F
HULETT         FAIR      73  48  40 S20G28    30.12S
NEWCASTLE      FAIR      70  45  40 SE16      30.17S

$$
WYZ014>020-022>026-101>103-250800-
CENTRAL WYOMING

CITY           SKY/WX    TMP DP  RH WIND       PRES   REMARKS
BIG PINEY      FAIR      54  27  35 NE5       30.30S
PINEDALE       FAIR      50  32  50 NW7       30.31S
DUBOIS         CLOUDY    55  25  30 W9        30.30S HAZE
LANDER         FAIR      66  32  28 CALM      30.17S
RIVERTON       FAIR      65  29  25 NW7       30.15S
CASPER         FAIR      58  42  55 N6        30.16S
DOUGLAS          N/A    N/A N/A N/A MISG      30.16F

$$
WYZ021-027>030-104>119-250800-
SOUTHERN WYOMING

CITY           SKY/WX    TMP DP  RH WIND       PRES   REMARKS
EVANSTON       FAIR      64  22  20 S7        30.30R
KEMMERER         N/A     57  25  28 NW15      30.31S
FORT BRIDGER   FAIR      66  16  14 W7        30.31S
ROCK SPRINGS   FAIR      69  11  10 CALM      30.26R
DIXON          FAIR      60  35  38 E3        30.28R
RAWLINS        FAIR      55  39  54 CALM      30.26S
SARATOGA       FAIR      54  28  37 S13       30.28S
LARAMIE        FAIR      57  52  83 SE23G31   30.32F
CHEYENNE       FAIR      59  54  83 SW17G24   30.30F
TORRINGTON     FAIR      62  55  77 SE8       30.18F
PINE BLUFFS    FAIR      54  54 100 SW5       30.26F

$$




USA.gov is the U.S. government's official web portal to all federal, state and local government web resources and services.